Location: Althorst
(53.6379°N, 10.7715°E)
Time: 17:39:05
(UTC+00:00)

NOSS 3-1 (A) - Pass Details

Date: 10 December 2019
Orbit: 766 x 1446 km, 63.4° (Epoch: 19 January)

Event Time Altitude Azimuth Distance (km) Brightness Sun altitude
Rises 16:10:31 0° 292° (WNW) 3,622 7.2 -10.0°
Reaches altitude 10° 16:13:07 10° 301° (WNW) 2,769 6.4 -10.4°
Maximum altitude 16:19:15 39° 9° (N) 1,618 4.4 -11.2°
Enters shadow 16:25:07 15° 72° (ENE) 2,829 5.2 -12.0°
